Deo Volente — PHFJ — position and weather

sailwx.info

Track history (hours):
 
Tides and Currents Weather Stations Pressure Air Temp Water Temp Dewpoint Dewpoint Depression Visibility Wind Speed Wind Dir Waves Ship Positions

Deo Volente

Last reported at 2014-Oct-25 06:20 UTC. Time now 2014-Oct-25 12:50 UTC.
Position N 51°36' E 002°26'.

Length 105 m; draft 4.7 m.

Type: Cargo ship. MMSI: 246518000.

Date/timePositionNaut miles runAvg speedWind from/ knotsBaromVisibWave heightAir tempDewpointWater temp
2014-Oct-25 06:20N 51°36' E 002°26'1315.2
2014-Oct-25 05:30N 51°25' E 002°15'1515.5
2014-Oct-25 04:34N 51°14' E 002°01'1615.9
2014-Oct-25 03:34N 51°03' E 001°42'10116.7
2014-Oct-24 21:29N 49°43' E 000°06'1516.2
2014-Oct-24 20:34N 49°29' W 000°04'1312.9
2014-Oct-24 19:33N 49°26' E 000°15'1211.3
2014-Oct-24 18:31N 49°28' E 000°33'0 0.0
2014-Oct-23 23:10N 49°28' E 000°33'6 9.7
2014-Oct-23 22:33N 49°27' E 000°24'1413.7
2014-Oct-23 21:33N 49°27' E 000°03'5 4.8
2014-Oct-23 20:34N 49°28' W 000°04'0 0.0
2014-Oct-23 19:33N 49°28' W 000°04'0 0.0
2014-Oct-23 18:33N 49°28' W 000°04'0 0.0
2014-Oct-23 17:33N 49°28' W 000°04'0 0.1
2014-Oct-23 16:33N 49°28' W 000°05'0 0.0
2014-Oct-23 15:34N 49°28' W 000°05'0 0.0
2014-Oct-23 14:33N 49°28' W 000°05'0 0.1
2014-Oct-23 13:33N 49°28' W 000°05'0 0.0
2014-Oct-23 12:33N 49°28' W 000°05'0 0.0
2014-Oct-23 11:33N 49°28' W 000°04'0 0.0
2014-Oct-23 10:33N 49°28' W 000°04'0 0.0
2014-Oct-23 09:33N 49°28' W 000°04'0 0.0
2014-Oct-23 08:33N 49°28' W 000°04'0 0.0
2014-Oct-23 07:33N 49°28' W 000°04'0 0.0
2014-Oct-23 06:34N 49°28' W 000°04'5 5.0
2014-Oct-23 05:33N 49°33' W 000°04'9 9.0
2014-Oct-23 04:33N 49°42' E 000°01'55 9.1
2014-Oct-22 22:33N 50°31' E 000°36'7 6.7
2014-Oct-22 21:33N 50°37' E 000°42'7 7.4
2014-Oct-22 20:34N 50°42' E 000°51'8 7.8
2014-Oct-22 19:33N 50°46' E 001°01'10 9.3
2014-Oct-22 18:29N 50°53' E 001°12'1111.5
2014-Oct-22 17:33N 51°02' E 001°23'1212.0
2014-Oct-22 16:33N 51°11' E 001°35'1110.5
2014-Oct-22 15:33N 51°21' E 001°41'10 9.7
2014-Oct-22 14:33N 51°30' E 001°45'9 9.4
2014-Oct-22 13:33N 51°40' E 001°45'9 9.2
2014-Oct-22 12:33N 51°49' E 001°44'9 9.3
2014-Oct-22 11:33N 51°58' E 001°46'10 9.6
2014-Oct-22 10:33N 52°07' E 001°48'1110.7
2014-Oct-22 09:33N 52°18' E 001°50'1111.2
2014-Oct-22 08:33N 52°29' E 001°53'1313.3
2014-Oct-22 07:33N 52°42' E 001°56'1413.9
2014-Oct-22 06:34N 52°53' E 001°41'1414.3
2014-Oct-22 05:33N 53°02' E 001°22'3912.9
2014-Oct-22 02:33N 53°29' E 000°36'1414.1
2014-Oct-22 01:33N 53°41' E 000°25'1413.8
2014-Oct-22 00:33N 53°53' E 000°13'1313.2
2014-Oct-21 23:33N 54°05' E 000°02'1312.7
2014-Oct-21 22:33N 54°15' W 000°10'1312.7
2014-Oct-21 21:33N 54°25' W 000°24'1312.5
2014-Oct-21 20:33N 54°35' W 000°38'1312.9
2014-Oct-21 19:33N 54°43' W 000°56'1312.9
2014-Oct-21 18:33N 54°53' W 001°09'1413.4
2014-Oct-21 17:33N 55°05' W 001°20'4915.0
2014-Oct-21 14:18N 55°51' W 001°49'1216.9
2014-Oct-21 13:33N 56°00' W 002°03'1716.6
2014-Oct-21 12:33N 56°15' W 002°16'1616.5
2014-Oct-21 11:33N 56°32' W 002°19'4916.4
2014-Oct-21 08:33N 57°18' W 001°48'1514.8
2014-Oct-21 07:33N 57°32' W 001°41'1312.9
2014-Oct-21 06:33N 57°45' W 001°39'  
2014-Oct-18 11:28N 59°20' W 003°23'1314.2
2014-Oct-18 10:33N 59°13' W 003°44'1413.9
2014-Oct-18 09:33N 59°05' W 004°06'1514.6
2014-Oct-18 08:34N 58°56' W 004°29'3916.1
2014-Oct-18 06:10N 58°29' W 005°23'1215.4
2014-Oct-18 05:22N 58°19' W 005°35'15113.9
2014-Oct-17 18:29N 55°51' W 006°34'1314.3
2014-Oct-17 17:33N 55°38' W 006°30'1514.7
2014-Oct-17 16:33N 55°28' W 006°11'1414.1
2014-Oct-17 15:33N 55°17' W 005°55'1614.2
2014-Oct-17 14:24N 55°03' W 005°40'1214.7
2014-Oct-17 13:33N 54°52' W 005°30'1515.1
2014-Oct-17 12:33N 54°38' W 005°19'1515.4
2014-Oct-17 11:33N 54°24' W 005°09'6115.2
2014-Oct-17 07:32N 53°36' W 004°03'2814.2
2014-Oct-17 05:32N 53°22' W 003°22'4 0.6
2014-Oct-16 22:08N 53°19' W 003°16'0 0.0
2014-Oct-16 17:29N 53°19' W 003°16'0 0.0
2014-Oct-16 16:32N 53°19' W 003°16'0 0.0
2014-Oct-16 15:32N 53°19' W 003°16'0 0.0
2014-Oct-16 14:10N 53°19' W 003°16'0 0.0
2014-Oct-16 13:21N 53°19' W 003°16'0 0.0
2014-Oct-16 12:33N 53°19' W 003°16'0 0.0
2014-Oct-16 11:20N 53°19' W 003°16'0 0.0
2014-Oct-16 10:33N 53°19' W 003°16'0 0.0
2014-Oct-16 09:33N 53°19' W 003°16'0 0.0
2014-Oct-16 08:33N 53°19' W 003°16'0 0.0
2014-Oct-16 07:33N 53°19' W 003°16'0 0.0
2014-Oct-16 06:33N 53°19' W 003°16'0 0.0
2014-Oct-16 05:33N 53°19' W 003°16'0 0.0
2014-Oct-16 04:33N 53°19' W 003°16'0 0.0
2014-Oct-16 03:31N 53°19' W 003°16'0 0.0
2014-Oct-16 02:33N 53°19' W 003°16'0 0.0
2014-Oct-16 01:33N 53°19' W 003°16'0 0.0
2014-Oct-16 00:33N 53°19' W 003°16'0 0.0
2014-Oct-15 23:33N 53°19' W 003°16'0 0.0
2014-Oct-15 22:33N 53°19' W 003°16'0 0.0
2014-Oct-15 21:33N 53°19' W 003°16'0 0.0
2014-Oct-15 20:33N 53°19' W 003°16'0 0.0
2014-Oct-15 19:33N 53°19' W 003°16'0 0.0
2014-Oct-15 17:03N 53°19' W 003°16'0 0.0
2014-Oct-15 16:18N 53°19' W 003°16'0 0.0
2014-Oct-15 15:32N 53°19' W 003°16'0 0.0
2014-Oct-15 14:33N 53°19' W 003°16'0 0.0
2014-Oct-15 13:33N 53°19' W 003°16'0 0.0
2014-Oct-15 12:33N 53°19' W 003°16'0 0.0
2014-Oct-15 11:33N 53°19' W 003°16'0 0.0
2014-Oct-15 10:33N 53°19' W 003°16'0 0.0
2014-Oct-15 09:33N 53°19' W 003°16'0 0.0
2014-Oct-15 08:33N 53°19' W 003°16'0 0.0
2014-Oct-15 07:33N 53°19' W 003°16'0 0.0
2014-Oct-15 06:33N 53°19' W 003°16'  
Track history (hours):
 
Tides and Currents Weather Stations Pressure Air Temp Water Temp Dewpoint Dewpoint Depression Visibility Wind Speed Wind Dir Waves Ship Positions

Deo Volente

Last reported at 2014-Oct-25 06:20 UTC. Time now 2014-Oct-25 12:50 UTC.
Position N 51°36' E 002°26'.

Length 105 m; draft 4.7 m.

Type: Cargo ship. MMSI: 246518000.

Date/timePositionNaut miles runAvg speedWind from/ knotsBaromVisibWave heightAir tempDewpointWater temp
2014-Oct-25 06:20N 51°36' E 002°26'1315.2
2014-Oct-25 05:30N 51°25' E 002°15'1515.5
2014-Oct-25 04:34N 51°14' E 002°01'1615.9
2014-Oct-25 03:34N 51°03' E 001°42'10116.7
2014-Oct-24 21:29N 49°43' E 000°06'1516.2
2014-Oct-24 20:34N 49°29' W 000°04'1312.9
2014-Oct-24 19:33N 49°26' E 000°15'1211.3
2014-Oct-24 18:31N 49°28' E 000°33'0 0.0
2014-Oct-23 23:10N 49°28' E 000°33'6 9.7
2014-Oct-23 22:33N 49°27' E 000°24'1413.7
2014-Oct-23 21:33N 49°27' E 000°03'5 4.8
2014-Oct-23 20:34N 49°28' W 000°04'0 0.0
2014-Oct-23 19:33N 49°28' W 000°04'0 0.0
2014-Oct-23 18:33N 49°28' W 000°04'0 0.0
2014-Oct-23 17:33N 49°28' W 000°04'0 0.1
2014-Oct-23 16:33N 49°28' W 000°05'0 0.0
2014-Oct-23 15:34N 49°28' W 000°05'0 0.0
2014-Oct-23 14:33N 49°28' W 000°05'0 0.1
2014-Oct-23 13:33N 49°28' W 000°05'0 0.0
2014-Oct-23 12:33N 49°28' W 000°05'0 0.0
2014-Oct-23 11:33N 49°28' W 000°04'0 0.0
2014-Oct-23 10:33N 49°28' W 000°04'0 0.0
2014-Oct-23 09:33N 49°28' W 000°04'0 0.0
2014-Oct-23 08:33N 49°28' W 000°04'0 0.0
2014-Oct-23 07:33N 49°28' W 000°04'0 0.0
2014-Oct-23 06:34N 49°28' W 000°04'5 5.0
2014-Oct-23 05:33N 49°33' W 000°04'9 9.0
2014-Oct-23 04:33N 49°42' E 000°01'55 9.1
2014-Oct-22 22:33N 50°31' E 000°36'7 6.7
2014-Oct-22 21:33N 50°37' E 000°42'7 7.4
2014-Oct-22 20:34N 50°42' E 000°51'8 7.8
2014-Oct-22 19:33N 50°46' E 001°01'10 9.3
2014-Oct-22 18:29N 50°53' E 001°12'1111.5
2014-Oct-22 17:33N 51°02' E 001°23'1212.0
2014-Oct-22 16:33N 51°11' E 001°35'1110.5
2014-Oct-22 15:33N 51°21' E 001°41'10 9.7
2014-Oct-22 14:33N 51°30' E 001°45'9 9.4
2014-Oct-22 13:33N 51°40' E 001°45'9 9.2
2014-Oct-22 12:33N 51°49' E 001°44'9 9.3
2014-Oct-22 11:33N 51°58' E 001°46'10 9.6
2014-Oct-22 10:33N 52°07' E 001°48'1110.7
2014-Oct-22 09:33N 52°18' E 001°50'1111.2
2014-Oct-22 08:33N 52°29' E 001°53'1313.3
2014-Oct-22 07:33N 52°42' E 001°56'1413.9
2014-Oct-22 06:34N 52°53' E 001°41'1414.3
2014-Oct-22 05:33N 53°02' E 001°22'3912.9
2014-Oct-22 02:33N 53°29' E 000°36'1414.1
2014-Oct-22 01:33N 53°41' E 000°25'1413.8
2014-Oct-22 00:33N 53°53' E 000°13'1313.2
2014-Oct-21 23:33N 54°05' E 000°02'1312.7
2014-Oct-21 22:33N 54°15' W 000°10'1312.7
2014-Oct-21 21:33N 54°25' W 000°24'1312.5
2014-Oct-21 20:33N 54°35' W 000°38'1312.9
2014-Oct-21 19:33N 54°43' W 000°56'1312.9
2014-Oct-21 18:33N 54°53' W 001°09'1413.4
2014-Oct-21 17:33N 55°05' W 001°20'4915.0
2014-Oct-21 14:18N 55°51' W 001°49'1216.9
2014-Oct-21 13:33N 56°00' W 002°03'1716.6
2014-Oct-21 12:33N 56°15' W 002°16'1616.5
2014-Oct-21 11:33N 56°32' W 002°19'4916.4
2014-Oct-21 08:33N 57°18' W 001°48'1514.8
2014-Oct-21 07:33N 57°32' W 001°41'1312.9
2014-Oct-21 06:33N 57°45' W 001°39'  
2014-Oct-18 11:28N 59°20' W 003°23'1314.2
2014-Oct-18 10:33N 59°13' W 003°44'1413.9
2014-Oct-18 09:33N 59°05' W 004°06'1514.6
2014-Oct-18 08:34N 58°56' W 004°29'3916.1
2014-Oct-18 06:10N 58°29' W 005°23'1215.4
2014-Oct-18 05:22N 58°19' W 005°35'15113.9
2014-Oct-17 18:29N 55°51' W 006°34'1314.3
2014-Oct-17 17:33N 55°38' W 006°30'1514.7
2014-Oct-17 16:33N 55°28' W 006°11'1414.1
2014-Oct-17 15:33N 55°17' W 005°55'1614.2
2014-Oct-17 14:24N 55°03' W 005°40'1214.7
2014-Oct-17 13:33N 54°52' W 005°30'1515.1
2014-Oct-17 12:33N 54°38' W 005°19'1515.4
2014-Oct-17 11:33N 54°24' W 005°09'6115.2
2014-Oct-17 07:32N 53°36' W 004°03'2814.2
2014-Oct-17 05:32N 53°22' W 003°22'4 0.6
2014-Oct-16 22:08N 53°19' W 003°16'0 0.0
2014-Oct-16 17:29N 53°19' W 003°16'0 0.0
2014-Oct-16 16:32N 53°19' W 003°16'0 0.0
2014-Oct-16 15:32N 53°19' W 003°16'0 0.0
2014-Oct-16 14:10N 53°19' W 003°16'0 0.0
2014-Oct-16 13:21N 53°19' W 003°16'0 0.0
2014-Oct-16 12:33N 53°19' W 003°16'0 0.0
2014-Oct-16 11:20N 53°19' W 003°16'0 0.0
2014-Oct-16 10:33N 53°19' W 003°16'0 0.0
2014-Oct-16 09:33N 53°19' W 003°16'0 0.0
2014-Oct-16 08:33N 53°19' W 003°16'0 0.0
2014-Oct-16 07:33N 53°19' W 003°16'0 0.0
2014-Oct-16 06:33N 53°19' W 003°16'0 0.0
2014-Oct-16 05:33N 53°19' W 003°16'0 0.0
2014-Oct-16 04:33N 53°19' W 003°16'0 0.0
2014-Oct-16 03:31N 53°19' W 003°16'0 0.0
2014-Oct-16 02:33N 53°19' W 003°16'0 0.0
2014-Oct-16 01:33N 53°19' W 003°16'0 0.0
2014-Oct-16 00:33N 53°19' W 003°16'0 0.0
2014-Oct-15 23:33N 53°19' W 003°16'0 0.0
2014-Oct-15 22:33N 53°19' W 003°16'0 0.0
2014-Oct-15 21:33N 53°19' W 003°16'0 0.0
2014-Oct-15 20:33N 53°19' W 003°16'0 0.0
2014-Oct-15 19:33N 53°19' W 003°16'0 0.0
2014-Oct-15 17:03N 53°19' W 003°16'0 0.0
2014-Oct-15 16:18N 53°19' W 003°16'0 0.0
2014-Oct-15 15:32N 53°19' W 003°16'0 0.0
2014-Oct-15 14:33N 53°19' W 003°16'0 0.0
2014-Oct-15 13:33N 53°19' W 003°16'0 0.0
2014-Oct-15 12:33N 53°19' W 003°16'0 0.0
2014-Oct-15 11:33N 53°19' W 003°16'0 0.0
2014-Oct-15 10:33N 53°19' W 003°16'0 0.0
2014-Oct-15 09:33N 53°19' W 003°16'0 0.0
2014-Oct-15 08:33N 53°19' W 003°16'0 0.0
2014-Oct-15 07:33N 53°19' W 003°16'0 0.0
2014-Oct-15 06:33N 53°19' W 003°16'  

Dump ship's entire track history